Location: Ago
(8.4667°N, 4.4833°E)
Time: 23:31:32
(UTC+00:00)

Cosmos 1378 - Pass Details

Date: 18 September 2020
Orbit: 492 x 501 km, 82.5° (Epoch: 20 October)

Event Time Altitude Azimuth Distance (km) Brightness Sun altitude
Rises 18:30:37 0° 347° (NNW) 2,560 7.0 -13.3°
Reaches altitude 10° 18:32:46 10° 342° (NNW) 1,681 6.1 -13.8°
Maximum altitude 18:36:19 48° 267° (W) 652 4.2 -14.7°
Drops below altitude 10° 18:39:53 10° 192° (SSW) 1,688 5.9 -15.6°
Sets 18:42:03 0° 186° (S) 2,572 6.8 -16.1°
